Weather History for Tampa, FL

Change the Weather History Date:

Monday, November 5, 2012

  Actual Average Record
Temperature  
Mean Temperature 73 °F 71 °F  
Max Temperature 82 °F 80 °F 88 °F (1959)
Min Temperature 64 °F 63 °F 41 °F (1969)
Degree Days  
Heating Degree Days 0 1  
Month to date heating degree days 0 3  
Since 1 July heating degree days 6 7  
Cooling Degree Days 8 7  
Month to date cooling degree days 25 37  
Year to date cooling degree days 3820 3403  
Growing Degree Days 24 (Base 50)    
Moisture  
Dew Point 61 °F    
Average Humidity 68    
Maximum Humidity 93    
Minimum Humidity 43    
Precipitation  
Precipitation 0.00 in 0.05 in 2.48 in (1896)
Month to date precipitation 0.01 0.25  
Year to date precipitation 53.64 42.53  
Sea Level Pressure  
Sea Level Pressure 29.99 in    
Wind  
Wind Speed 4 mph (NW)    
Max Wind Speed 10 mph    
Max Gust Speed 20 mph    
Visibility 10 miles    
Events      
T = Trace of Precipitation, MM = Missing Value Source: NWS Daily Summary

Daily Weather History Graph

Daily Weather History Graph

Search for Another Location

Airport:

Trip Planner

Search our weather history database for the weather conditions in past years. The results will help you decide how hot, cold, wet, or windy it might be!

Date:

Astronomy

Nov. 05, 2012 Rise Set
Actual Time 6:44 AM EST 5:42 PM EST
Civil Twilight 6:20 AM EST 6:07 PM EST
Nautical Twilight 5:52 AM EST 6:34 PM EST
Astronomical Twilight 5:24 AM EST 7:02 PM EST
Moon 11:18 PM EST (11/5) 12:02 PM EST (11/5)
Length of Visible Light 11h 46m
Length of Day
10h 58m
Waning Gibbous, 63% of the Moon is Illuminated
Nov 5
Waning Gibbous
Nov 6
Last Quarter
Nov 13
New
Nov 20
First Quarter
Nov 28
Full

Hourly Weather History & Observations

Time (EST) Temp. Dew Point Humidity Pressure Visibility Wind Dir Wind Speed Gust Speed Precip Events Conditions
12:53 AM 68.0 °F 66.0 °F 93% 30.03 in 6.0 mi SW 5.8 mph - N/A   Partly Cloudy
1:53 AM 69.1 °F 66.0 °F 90% 30.01 in 7.0 mi SW 3.5 mph - N/A   Partly Cloudy
2:53 AM 69.1 °F 66.0 °F 90% 30.00 in 7.0 mi Calm Calm - N/A   Partly Cloudy
3:53 AM 69.1 °F 66.0 °F 90% 30.00 in 9.0 mi West 3.5 mph - N/A   Partly Cloudy
4:53 AM 69.1 °F 64.9 °F 87% 30.00 in 10.0 mi Calm Calm - N/A   Scattered Clouds
5:53 AM 69.1 °F 64.9 °F 87% 30.00 in 10.0 mi WNW 3.5 mph - N/A   Mostly Cloudy
6:53 AM 70.0 °F 66.0 °F 87% 30.01 in 10.0 mi WNW 4.6 mph - N/A   Mostly Cloudy
7:53 AM 72.0 °F 66.9 °F 84% 30.01 in 10.0 mi West 3.5 mph - N/A   Mostly Cloudy
8:53 AM 73.0 °F 66.9 °F 81% 30.02 in 10.0 mi Variable 5.8 mph - N/A   Mostly Cloudy
9:53 AM 72.0 °F 63.0 °F 73% 30.02 in 10.0 mi NNW 4.6 mph - N/A   Mostly Cloudy
10:53 AM 75.0 °F 64.0 °F 69% 30.02 in 10.0 mi NW 6.9 mph - N/A   Mostly Cloudy
11:53 AM 78.1 °F 57.9 °F 50% 30.00 in 10.0 mi NNW 8.1 mph - N/A   Mostly Cloudy
12:53 PM 77.0 °F 55.9 °F 48% 29.97 in 10.0 mi NW 6.9 mph - N/A   Mostly Cloudy
1:53 PM 78.1 °F 55.0 °F 45% 29.96 in 10.0 mi North 6.9 mph - N/A   Mostly Cloudy
2:53 PM 77.0 °F 54.0 °F 45% 29.95 in 10.0 mi NNW 8.1 mph - N/A   Mostly Cloudy
3:53 PM 75.0 °F 52.0 °F 44% 29.94 in 10.0 mi NW 8.1 mph - N/A   Mostly Cloudy
4:53 PM 73.0 °F 55.0 °F 53% 29.95 in 10.0 mi NNW 8.1 mph - N/A   Overcast
5:53 PM 70.0 °F 55.9 °F 61% 29.96 in 10.0 mi Calm Calm - N/A   Overcast
6:53 PM 70.0 °F 55.0 °F 59% 29.98 in 10.0 mi NW 5.8 mph - N/A   Overcast
7:53 PM 68.0 °F 57.0 °F 68% 29.98 in 10.0 mi NW 3.5 mph - N/A   Overcast
8:53 PM 68.0 °F 59.0 °F 73% 29.99 in 10.0 mi Calm Calm - N/A   Overcast
9:53 PM 66.9 °F 60.1 °F 79% 29.99 in 10.0 mi WSW 3.5 mph - N/A   Overcast
10:53 PM 66.0 °F 60.1 °F 81% 29.98 in 10.0 mi Calm Calm - N/A   Mostly Cloudy
11:53 PM 64.9 °F 61.0 °F 87% 29.95 in 10.0 mi North 3.5 mph - N/A   Scattered Clouds